This is the latest recevied weather packets stored in our database for station/object IW1CBG-23. If no packets are shown the sender has not sent any weather packets the latest 10 day(s).
| Time | Temp. | Humidity | Pressure | Rain* | Wind** | Luminosity | Snow |
|---|---|---|---|---|---|---|---|
| 1777192774 | 17.22° C | 73% | 1013.7 hPa | - | - | - | - |
| 1777191538 | 17.78° C | 72% | 1013.6 hPa | - | - | - | - |
| 1777190301 | 17.22° C | 67% | 1013.3 hPa | - | - | - | - |
| 1777189067 | 17.78° C | 65% | 1013.2 hPa | - | - | - | - |
| 1777187824 | 17.78° C | 66% | 1013 hPa | - | - | - | - |
| 1777186584 | 16.11° C | 70% | 1013 hPa | - | - | - | - |
| 1777185346 | 16.67° C | 73% | 1012.8 hPa | - | - | - | - |
| 1777184107 | 15° C | 74% | 1012.7 hPa | - | - | - | - |
| 1777181630 | 14.44° C | 80% | 1012.4 hPa | - | - | - | - |
| 1777180391 | 14.44° C | 81% | 1012.2 hPa | - | - | - | - |
| 1777179151 | 13.89° C | 82% | 1012 hPa | - | - | - | - |
| 1777177913 | 13.33° C | 82% | 1012 hPa | - | - | - | - |
| 1777176677 | 13.33° C | 82% | 1011.9 hPa | - | - | - | - |
| 1777175439 | 13.33° C | 82% | 1011.8 hPa | - | - | - | - |
| 1777174203 | 13.33° C | 83% | 1011.8 hPa | - | - | - | - |
| 1777172965 | 13.33° C | 84% | 1011.8 hPa | - | - | - | - |
| 1777170489 | 13.33° C | 83% | 1011.7 hPa | - | - | - | - |
| 1777169252 | 13.33° C | 82% | 1011.8 hPa | - | - | - | - |
| 1777168015 | 13.33° C | 80% | 1011.9 hPa | - | - | - | - |
| 1777166776 | 13.89° C | 79% | 1011.9 hPa | - | - | - | - |
| 1777165539 | 13.89° C | 83% | 1011.9 hPa | - | - | - | - |
| 1777164300 | 13.89° C | 94% | 1012 hPa | - | - | - | - |
| 1777163062 | 12.78° C | 99% | 1011.9 hPa | - | - | - | - |
| 1777161826 | 12.78° C | 99% | 1012 hPa | - | - | - | - |
| 1777160587 | 12.78° C | 99% | 1012 hPa | - | - | - | - |
* Rain since midnight (hover to see other rain measurements)
** Current wind speed in m/s (hover to see current wind gust speed)